sat.trackr.live / text

‹ back to catalog

STARLINK-31520

NORAD 59210 · 2024-046K

PAYLOAD ACTIVE UNKNOWN

§ Identity

Operator
Country
US
Launch date
2024-03-11
Launch site
AFWTR
Launch vehicle
Mass (kg)
RCS (m²)

Purposes: comms

External: N2YO · Heavens-Above · Gunter

§ Orbital elements

Epoch: 2026-09-20T20:15:35.772192Z

Period
93.85 min
Inclination
53.1592°
Eccentricity
0.0001560
Mean motion
15.34396884 rev/d
Perigee alt
461.6 km
Apogee alt
463.8 km
Semi-major
6,840.8 km
B*
2.3463e-4
RAAN
327.7999°
Arg perigee
67.3283°
Mean anomaly
292.7884°
Rev number
14,294

§ Raw data

STARLINK-315201 59210U 24046K   26263.84416403  .00007558  00000+0  23463-3 0  99972 59210  53.1592 327.7999 0001560  67.3283 292.7884 15.34396884142942

JSON: /api/v1/satellites/59210 · /tle

For live sub-satellite position, see the globe view (requires WebGL).

§ Visibility from observer

Set your observer location to see the next 7 days of passes ≥ 10°. The values pass through the URL so the page stays shareable.

No JS? Fill the form by hand. The geolocation button needs JavaScript.